Location: London
(51.5074°N, 0.1278°W)
Time: 05:07:41
(UTC+01:00)

ISS - Pass Details

Date: 26 March 2018
Orbit: 402 x 408 km, 51.6° (Epoch: 19 July)

Event Time Altitude Azimuth Distance (km) Brightness Sun altitude
Rises 21:05:13 0° 233° (SW) 2,348 0.4 -16.0°
Reaches altitude 10° 21:07:21 10° 225° (SW) 1,489 -0.7 -16.3°
Maximum altitude 21:10:31 41° 154° (SSE) 622 -3.3 -16.7°
Enters shadow 21:10:33 41° 153° (SSE) 622 -3.3 -16.7°
